Skip Page Navigation
NASA JPL Caltech
NASA Logo - Jet Propulsion Laboratory + View the NASA Portal
+ Near-Earth Object (NEO) Program
Search JPL
JPL Home Earth Solar System Stars & Galaxies Technology
JPL Solar System Dynamics
BODIES ORBITS EPHEMERIDES TOOLS PHYSICAL DATA DISCOVERY FAQ SITE MAP
JPL Small-Body Database Browser
Search: [ help ]  
11378 Dauria (1998 SV60)
Classification: Main-belt Asteroid          SPK-ID: 2011378
Ephemeris | Orbit Diagram | Orbital Elements | Physical Parameters | Discovery Circumstances ]

[ show orbit diagram ]
Orbital Elements at Epoch 2456800.5 (2014-May-23.0) TDB
Reference: JPL 8 (heliocentric ecliptic J2000)
 Element Value Uncertainty (1-sigma)   Units 
e .1327911243659938 6.3639e-08  
a 2.39568919217509 1.4685e-08 AU
q 2.0775629307147 1.5512e-07 AU
i 3.439892658934814 5.8331e-06 deg
node 143.3659515634454 0.00010971 deg
peri 254.5902260039301 0.00011253 deg
M 53.76722361066658 2.2934e-05 deg
tp 2456598.217064310475
(2013-Nov-01.71706431)
8.6072e-05 JED
period 1354.391243549024
3.71
1.2453e-05
3.409e-08
d
yr
n .2658020728609129 2.444e-09 deg/d
Q 2.713815453635479 1.6635e-08 AU
  Orbit Determination Parameters
   # obs. used (total)      872  
   data-arc span      9636 days (26.38 yr)  
   first obs. used      1987-10-23  
   last obs. used      2014-03-11  
   planetary ephem.      DE431  
   SB-pert. ephem.      SB431-BIG16  
   condition code      0  
   fit RMS      .58265  
   data source      ORB  
   producer      Otto Matic  
   solution date      2014-Mar-22 10:58:16  

Additional Information
 Earth MOID = 1.08666 AU 
 T_jup = 3.515 
[ show covariance matrix ]

Ephemeris | Orbit Diagram | Orbital Elements | Physical Parameters | Discovery Circumstances ]

Physical Parameter Table
Parameter Symbol Value Units Sigma Reference Notes
absolute magnitude H 14.4 mag n/a MPO266019  

11378 Dauria           Discovered 1998 Sept. 17 by the Lowell Observatory Near-Earth Object Search at the Anderson Mesa Station.
Florida amateur astronomer Tippy D´Auria (b. 1935) is founder of the Winter Star Party. For many years he has worked to encourage both beginning and advanced sky-watchers in the hobby.
NOTE: some special characters may not display properly (any characters within {} are an attempt to place the proper accent above a character)
Reference: 20010109/MPCPages.arcLast Updated: 2009-05-11

Alternate Designations
 1998 SV60 = 1987 UU7 = 1997 LX9 
Ephemeris | Orbit Diagram | Orbital Elements | Physical Parameters | Discovery Circumstances ]
ABOUT SSD CREDITS/AWARDS PRIVACY/COPYRIGHT GLOSSARY LINKS
FirstGov 2014-Apr-17 04:20 UT
(server date/time)  
NASA Home Page
Site Manager:   Donald K. Yeomans
Webmaster  Alan B. Chamberlin